Hourly Weather Mundu

Today, 20 September, Monday

Time Temperature Precipitation Wind Pressure Humidity
00:00 +24°C° 0.4 mm 1 mps 723 mmHg 94%
01:00 +24°C° 0.4 mm 1 mps 723 mmHg 94%
02:00 +24°C° 1.1 mm 1 mps 723 mmHg 95%
03:00 +24°C° 1.1 mm 1 mps 723 mmHg 96%
04:00 +23°C° 1.1 mm 1 mps 723 mmHg 97%
05:00 +23°C° 0.1 mm 1 mps 724 mmHg 97%
06:00 +24°C° 0.1 mm 2 mps 724 mmHg 97%
07:00 +24°C° 0.1 mm 2 mps 725 mmHg 97%
08:00 +24°C° 0.3 mm 2 mps 725 mmHg 95%
09:00 +24°C° 0.3 mm 2 mps 725 mmHg 94%
10:00 +25°C° 0.3 mm 2 mps 725 mmHg 93%
11:00 +25°C° 0.1 mm 2 mps 724 mmHg 90%
12:00 +26°C° 0.1 mm 1 mps 723 mmHg 87%
13:00 +24°C° 0.1 mm 0 mps 722 mmHg 85%
14:00 +25°C° 0 mm 0 mps 722 mmHg 84%
15:00 +25°C° 0 mm 0 mps 722 mmHg 83%
16:00 +27°C° 0 mm 1 mps 722 mmHg 82%
17:00 +26°C° 0 mm 1 mps 722 mmHg 86%
18:00 +25°C° 0 mm 1 mps 722 mmHg 90%
19:00 +24°C° 0 mm 1 mps 722 mmHg 94%
20:00 +24°C° 0.1 mm 1 mps 723 mmHg 95%
21:00 +24°C° 0.1 mm 1 mps 723 mmHg 95%
22:00 +24°C° 0.1 mm 1 mps 724 mmHg 96%
23:00 +24°C° 0.4 mm 1 mps 724 mmHg 96%

Tomorrow, 21 September, Tuesday

Time Temperature Precipitation Wind Pressure Humidity
00:00 +24°C° 0.4 mm 1 mps 723 mmHg 96%
01:00 +24°C° 0.4 mm 1 mps 723 mmHg 96%
02:00 +24°C° 0.3 mm 1 mps 723 mmHg 96%
03:00 +23°C° 0.3 mm 1 mps 723 mmHg 96%
04:00 +23°C° 0.3 mm 1 mps 723 mmHg 97%
05:00 +23°C° 0.4 mm 1 mps 724 mmHg 96%
06:00 +24°C° 0.4 mm 1 mps 724 mmHg 96%
07:00 +24°C° 0.4 mm 1 mps 725 mmHg 95%
08:00 +25°C° 0 mm 1 mps 725 mmHg 93%
09:00 +25°C° 0 mm 1 mps 725 mmHg 92%
10:00 +26°C° 0 mm 1 mps 725 mmHg 90%
11:00 +27°C° 0 mm 1 mps 724 mmHg 84%
12:00 +28°C° 0 mm 1 mps 723 mmHg 78%
13:00 +28°C° 0 mm 0 mps 723 mmHg 72%
14:00 +28°C° 0.2 mm 0 mps 722 mmHg 74%
15:00 +27°C° 0.2 mm 0 mps 722 mmHg 77%
16:00 +27°C° 0.2 mm 0 mps 722 mmHg 79%
17:00 +26°C° 0.4 mm 0 mps 722 mmHg 83%
18:00 +25°C° 0.4 mm 0 mps 722 mmHg 87%
19:00 +23°C° 0.4 mm 0 mps 722 mmHg 92%
20:00 +23°C° 0.7 mm 0 mps 723 mmHg 93%
21:00 +23°C° 0.7 mm 0 mps 723 mmHg 93%
22:00 +22°C° 0.7 mm 0 mps 724 mmHg 94%
23:00 +22°C° 0 mm 0 mps 724 mmHg 95%

Day after tomorrow, 22 September, Wednesday

Time Temperature Precipitation Wind Pressure Humidity
00:00 +22°C° 0 mm 0 mps 723 mmHg 95%
01:00 +22°C° 0 mm 0 mps 723 mmHg 95%
02:00 +22°C° 0 mm 0 mps 723 mmHg 95%
03:00 +22°C° 0 mm 0 mps 723 mmHg 95%
04:00 +22°C° 0 mm 0 mps 723 mmHg 95%
05:00 +22°C° 0 mm 0 mps 723 mmHg 95%
06:00 +24°C° 0 mm 1 mps 724 mmHg 95%
07:00 +25°C° 0 mm 1 mps 724 mmHg 95%
08:00 +26°C° 0.4 mm 1 mps 724 mmHg 92%
09:00 +27°C° 0.4 mm 1 mps 725 mmHg 88%
10:00 +28°C° 0.4 mm 2 mps 725 mmHg 84%
11:00 +28°C° 0.5 mm 2 mps 724 mmHg 80%
12:00 +29°C° 0.5 mm 2 mps 724 mmHg 76%
13:00 +30°C° 0.5 mm 2 mps 723 mmHg 72%
14:00 +29°C° 0.3 mm 2 mps 723 mmHg 76%
15:00 +29°C° 0.3 mm 1 mps 723 mmHg 79%
16:00 +28°C° 0.3 mm 1 mps 722 mmHg 82%
17:00 +27°C° 1.1 mm 1 mps 722 mmHg 85%
18:00 +26°C° 1.1 mm 1 mps 722 mmHg 88%
19:00 +25°C° 1.1 mm 1 mps 722 mmHg 91%
20:00 +24°C° 0 mm 1 mps 723 mmHg 92%
21:00 +24°C° 0 mm 1 mps 723 mmHg 93%
22:00 +24°C° 0 mm 1 mps 724 mmHg 94%
23:00 +23°C° 0 mm 1 mps 724 mmHg 94%

23 September, Thursday

Time Temperature Precipitation Wind Pressure Humidity
00:00 +23°C° 0 mm 1 mps 724 mmHg 95%
01:00 +23°C° 0 mm 1 mps 723 mmHg 96%
02:00 +23°C° 0 mm 1 mps 723 mmHg 96%
03:00 +23°C° 0 mm 2 mps 723 mmHg 96%
04:00 +23°C° 0 mm 2 mps 724 mmHg 97%
05:00 +23°C° 0 mm 2 mps 724 mmHg 96%
06:00 +23°C° 0 mm 2 mps 724 mmHg 96%
07:00 +24°C° 0 mm 2 mps 725 mmHg 95%
08:00 +25°C° 0 mm 2 mps 725 mmHg 91%
09:00 +26°C° 0 mm 2 mps 725 mmHg 87%
10:00 +27°C° 0 mm 2 mps 726 mmHg 83%
11:00 +27°C° 0.8 mm 2 mps 725 mmHg 84%
12:00 +27°C° 0.8 mm 2 mps 724 mmHg 84%
13:00 +27°C° 0.8 mm 2 mps 724 mmHg 85%
14:00 +27°C° 0.7 mm 2 mps 723 mmHg 85%
15:00 +28°C° 0.7 mm 2 mps 723 mmHg 86%
16:00 +28°C° 0.7 mm 1 mps 723 mmHg 86%
17:00 +27°C° 0.3 mm 2 mps 723 mmHg 89%
18:00 +26°C° 0.3 mm 2 mps 723 mmHg 92%
19:00 +25°C° 0.3 mm 2 mps 723 mmHg 95%
20:00 +24°C° 0 mm 1 mps 724 mmHg 96%
21:00 +24°C° 0 mm 1 mps 724 mmHg 97%
22:00 +24°C° 0 mm 1 mps 724 mmHg 97%
23:00 +23°C° 0 mm 1 mps 724 mmHg 97%

24 September, Friday

Time Temperature Precipitation Wind Pressure Humidity
00:00 +23°C° 0 mm 1 mps 724 mmHg 98%
01:00 +23°C° 0 mm 1 mps 724 mmHg 98%
02:00 +23°C° 0 mm 1 mps 724 mmHg 98%
03:00 +23°C° 0 mm 1 mps 724 mmHg 98%
04:00 +23°C° 0 mm 1 mps 724 mmHg 97%
05:00 +23°C° 0 mm 1 mps 724 mmHg 97%
06:00 +24°C° 0 mm 1 mps 725 mmHg 96%
07:00 +24°C° 0 mm 1 mps 725 mmHg 95%
08:00 +25°C° 0.2 mm 1 mps 725 mmHg 90%
09:00 +27°C° 0.2 mm 2 mps 726 mmHg 85%
10:00 +28°C° 0.2 mm 3 mps 726 mmHg 79%
11:00 +28°C° 0.2 mm 3 mps 726 mmHg 79%
12:00 +28°C° 0.2 mm 3 mps 725 mmHg 79%
13:00 +28°C° 0.2 mm 4 mps 725 mmHg 78%
14:00 +28°C° 0 mm 3 mps 724 mmHg 79%
15:00 +28°C° 0 mm 2 mps 724 mmHg 80%
16:00 +28°C° 0 mm 1 mps 723 mmHg 81%
17:00 +27°C° 0 mm 1 mps 724 mmHg 83%
18:00 +26°C° 0 mm 1 mps 724 mmHg 85%
19:00 +25°C° 0 mm 1 mps 724 mmHg 87%
20:00 +24°C° 0 mm 1 mps 724 mmHg 87%
21:00 +24°C° 0 mm 1 mps 724 mmHg 87%
22:00 +24°C° 0 mm 1 mps 725 mmHg 87%
23:00 +23°C° 0 mm 1 mps 724 mmHg 88%

25 September, Saturday

Time Temperature Precipitation Wind Pressure Humidity
00:00 +23°C° 0 mm 1 mps 724 mmHg 88%
01:00 +23°C° 0 mm 1 mps 724 mmHg 88%
02:00 +23°C° 0 mm 1 mps 724 mmHg 88%
03:00 +22°C° 0 mm 1 mps 724 mmHg 88%
04:00 +22°C° 0 mm 1 mps 724 mmHg 87%
05:00 +23°C° 0 mm 1 mps 724 mmHg 87%
06:00 +23°C° 0 mm 1 mps 725 mmHg 86%
07:00 +23°C° 0 mm 1 mps 725 mmHg 85%
08:00 +25°C° 0 mm 2 mps 725 mmHg 78%
09:00 +27°C° 0 mm 2 mps 726 mmHg 71%
10:00 +29°C° 0 mm 2 mps 726 mmHg 63%
11:00 +30°C° 0 mm 2 mps 726 mmHg 61%
12:00 +31°C° 0 mm 2 mps 725 mmHg 59%
13:00 +31°C° 0 mm 2 mps 725 mmHg 57%
14:00 +31°C° 0 mm 2 mps 724 mmHg 61%
15:00 +31°C° 0 mm 2 mps 724 mmHg 65%
16:00 +31°C° 0 mm 2 mps 723 mmHg 69%
17:00 +29°C° 0 mm 1 mps 723 mmHg 74%
18:00 +27°C° 0 mm 1 mps 724 mmHg 80%
19:00 +25°C° 0 mm 1 mps 724 mmHg 85%
20:00 +25°C° 0 mm 1 mps 724 mmHg 86%
21:00 +24°C° 0 mm 1 mps 724 mmHg 86%
22:00 +24°C° 0 mm 1 mps 725 mmHg 87%
23:00 +24°C° 0 mm 1 mps 724 mmHg 87%
Show more

We Need Your Consent

Meteoprog and our Service Providers may store and access personal data such as cookies, device identifiers or other similar technologies on your device and process such data to personalise content and ads, as well as provide social media features and to analyse the traffic.

  • Store and/or access information on your device

    Cookies, device identifiers or other information can be stored or accessed on your device for the purposes indicated above.

  • Personalised ads and content, ad and content measurement, audience insights, and products development

    Ads and content can be personalised based on a profile. More data can be added to better personalise ads and content. Ad and content performance can be measured. Insights about the audience who saw the ads and content can be derived. Such data can be used to develop or improve user’s experience, systems and software.

By clicking ‘I Agree’ you will allow the use of indicated cookies, device identifiers, web beacons or other similar technologies. Your settings can be changed in the browser on your device.

For certain purposes, legitimate interests may be relied on, rather than consent. You can read more about this in our Privacy and Cookie Policy.